Location: G�migny
(47.9646°N, 1.6950°E)
Time: 11:23:17
(UTC+00:00)

YAOGAN 6 - Pass Details

Date: 29 January 2020
Orbit: 465 x 505 km, 97.0° (Epoch: 25 February)

Event Time Altitude Azimuth Distance (km) Brightness Sun altitude
Rises 17:49:30 0° 168° (SSE) 2,580 6.3 -10.5°
Reaches altitude 10° 17:51:35 10° 169° (S) 1,696 5.4 -10.8°
Maximum altitude 17:55:14 83° 256° (WSW) 504 2.7 -11.4°
Drops below altitude 10° 17:58:53 10° 346° (NNW) 1,689 5.3 -12.0°
Sets 18:00:57 0° 348° (NNW) 2,568 6.2 -12.3°
